#timestamp,LO_Frequency,Hit,StdDev 
1566716415.8,286047000.5,N
1566716435.7,286047000.1,N
1566716455.5,286046999.9,N
1566716475.4,286047000.8,N
1566716495.2,286046998.4,N
1566716515.0,286047000.5,N
1566716515.9,286047000.5,N
1566716535.8,286047002.0,N
1566716555.6,286047002.6,N
1566716575.4,286047002.5,N
1566716595.3,286047002.5,N
1566716615.1,286047000.4,N
1566716635.9,286046999.0,N
1566716655.7,286046999.3,N
1566716675.5,286046996.5,N
1566716695.4,286047001.1,N
1566716715.2,286047002.0,N
1566716735.0,286046999.7,N
1566716735.9,286046999.7,N
1566716755.8,286047002.3,N
1566716775.6,286047000.1,N
1566716795.5,286047001.4,N
1566716815.3,286047002.5,N
1566716835.1,286047000.5,N
1566716855.9,286047000.0,N
1566716875.7,286047000.6,N
1566716895.5,286047002.3,N
1566716915.4,286047002.2,N
1566716935.2,286046999.7,N
1566716955.1,286047002.0,N
1566716956.0,286047002.0,N
1566716975.8,286047001.6,N
1566716995.6,286047002.4,N
1566717015.5,286047002.8,N
1566717035.3,286047000.1,N
1566717055.2,286047000.5,N
1566717075.9,286047002.3,N
1566717095.7,286046999.9,N
1566717115.6,286047000.5,N
1566717135.4,286047000.5,N
1566717155.2,286047001.2,N
1566717175.1,286047001.0,N
1566717176.0,286047001.0,N
1566717195.8,286047002.8,N
1566717215.7,286047002.5,N
1566717235.5,286047002.4,N
1566717255.3,286047000.1,N
1566717275.2,286047002.5,N
1566717295.0,286047002.6,N
1566717295.9,286047002.6,N
1566717315.7,286047002.8,N
1566717335.6,286047002.5,N
1566717355.4,286047002.6,N
1566717375.3,286047000.1,N
1566717395.1,286047000.3,N
1566717396.0,286047000.3,N
1566717415.8,286047002.8,N
1566717435.7,286047002.6,N
1566717455.5,286047000.1,N
1566717475.3,286047000.0,N
1566717495.2,286047000.3,N
1566717515.0,286047002.3,N
1566717515.9,286047002.3,N
1566717535.8,286047000.0,N
1566717555.6,286047000.9,N
1566717575.4,286047002.3,N
1566717595.3,286047002.1,N
1566717615.1,286047000.3,N
1566717635.8,286047002.7,N
1566717655.7,286047003.9,Y
1566717675.5,286046999.8,P
1566717695.4,286047002.3,N
1566717715.2,286047004.0,P
1566717735.0,286047000.4,N
1566717735.9,286047000.4,N
1566717755.8,286047002.6,N
1566717775.6,286047001.1,N
1566717795.5,286047002.7,N
1566717815.3,286047001.5,N
1566717835.1,286047000.4,N
1566717855.9,286046998.3,N
1566717875.7,286046998.8,N
1566717895.6,286046996.7,N
1566717915.4,286046999.0,N
1566717935.2,286046998.6,N
1566717955.1,286047001.2,N
1566717956.0,286047001.2,N
1566717975.8,286046996.5,N
1566717995.6,286046999.5,N
1566718015.5,286046998.5,N
1566718035.3,286046999.3,N
1566718055.1,286046998.3,N
1566718075.9,286046998.2,N
1566718095.7,286046999.0,N
1566718115.6,286046999.3,N
1566718135.4,286046999.3,N
1566718155.2,286046999.5,N
1566718175.1,286046999.3,N
1566718176.0,286046999.3,N
1566718195.8,286046999.2,N
1566718215.7,286046996.9,N
1566718235.5,286046998.6,N
1566718255.3,286046996.6,N
1566718275.2,286046997.2,N
1566718295.0,286046997.4,N
1566718295.9,286046997.4,N
1566718315.8,286046997.6,N
1566718335.6,286046996.1,N
1566718355.4,286046996.2,N
1566718375.3,286046995.8,Y
1566718395.1,286046999.0,P
1566718415.8,286046999.3,N
1566718435.7,286046998.8,P
1566718455.5,286046996.9,Y
1566718475.4,286047001.1,P
1566718495.2,286047000.9,N
1566718515.0,286047000.7,N
1566718515.9,286047000.7,N
1566718535.8,286046998.2,N
1566718555.6,286047001.0,N
1566718575.4,286046999.8,N
1566718595.3,286047001.2,N
1566718615.1,286046998.1,N
1566718635.9,286046998.2,N
1566718655.7,286047000.9,N
1566718675.5,286047000.9,N
1566718695.4,286047001.0,N
1566718715.2,286046998.2,N
1566718735.0,286046998.5,N
1566718735.9,286046998.5,N
1566718755.8,286046999.1,N
1566718775.6,286046999.1,N
1566718795.5,286046998.3,N
1566718815.3,286046999.4,N
1566718835.1,286046999.1,N
1566718855.9,286046999.3,N
1566718875.7,286046997.4,N
1566718895.5,286046997.7,N
1566718915.4,286046997.3,N
1566718935.2,286046997.8,N
1566718955.1,286046996.9,N
1566718956.0,286046996.9,N
1566718975.8,286046996.5,N
1566718995.6,286046996.8,N
1566719015.5,286046995.3,Y
1566719035.3,286046999.5,P
1566719055.1,286046999.2,P
1566719075.9,286047000.7,P
1566719095.7,286046998.8,N
1566719115.6,286047001.2,N
1566719135.4,286046998.5,N
1566719155.2,286046997.7,N
1566719175.1,286046997.0,N
1566719176.0,286046997.0,N
1566719195.8,286046996.5,N
1566719215.7,286046998.3,N
1566719235.5,286047000.8,N
1566719255.3,286046999.3,N
1566719275.2,286046999.2,N
1566719295.9,286046996.8,N
1566719315.7,286046998.4,N
1566719335.6,286046996.6,N
1566719355.4,286046996.6,N
1566719375.2,286046996.8,N
1566719395.1,286046995.7,N
1566719396.0,286046995.7,N
1566719415.8,286046995.6,N
1566719435.7,286046995.6,N
1566719455.5,286046997.3,N
1566719475.3,286046997.8,N
1566719495.2,286046995.3,N
1566719515.0,286046997.9,N
1566719515.9,286046997.9,N
1566719535.8,286046999.1,N
1566719555.6,286046998.4,N
1566719575.4,286047001.0,N
1566719595.3,286047000.0,N
1566719615.1,286047000.8,N
1566719635.8,286046998.8,N
1566719655.7,286046997.1,N
1566719675.5,286046997.8,N
1566719695.4,286046999.3,N
1566719715.2,286046999.2,N
1566719735.0,286046997.8,N
1566719735.9,286046997.8,N
1566719755.8,286046996.5,N
1566719775.6,286046996.7,N
1566719795.4,286046994.9,Y
1566719815.3,286046998.2,P
1566719835.1,286046999.3,P
1566719855.9,286046998.6,N
1566719875.7,286047000.5,N
1566719895.5,286047000.9,N
1566719915.4,286046999.8,N
1566719935.2,286047000.1,N
1566719955.0,286047001.1,N
1566719955.9,286047001.1,N
1566719975.8,286046999.9,N
1566719995.6,286047000.5,N
